Fort Smith, AR

8:53 PM CST on February 24, 2017 (GMT -0600)
Fort Smith Regional

Weather History for KFSM - August, 2013

Change the Weather History Date:

Sunday, August 11, 2013

  Actual Average Record
Temperature  
Mean Temperature 84 °F 83 °F  
Max Temperature 92 °F 94 °F 108 °F (1935)
Min Temperature 75 °F 72 °F 58 °F (1989)
Cooling Degree Days 19 18  
Month to date cooling degree days 220 198  
Year to date cooling degree days 1481 1363  
Since 1 June cooling degree days 1207 1119  
Growing Degree Days 33 (Base 50)    
Moisture  
Dew Point 73 °F    
Average Humidity 75    
Maximum Humidity 94    
Minimum Humidity 56    
Precipitation  
Precipitation 0.00 in 0.09 in 2.40 in (1893)
Month to date precipitation 2.00 0.98  
Year to date precipitation 33.03 27.75  
Sea Level Pressure  
Sea Level Pressure 30.03 in    
Wind  
Wind Speed 4 mph (ENE)    
Max Wind Speed 9 mph    
Max Gust Speed 12 mph    
Visibility 10 miles    
Events      
T = Trace of Precipitation, MM = Missing Value Source: NWS Daily Summary

Daily Weather History Graph

Daily Weather History Graph

Search for Another Location

Airport or City:

Trip Planner

Search our weather history database for the weather conditions in past years. The results will help you decide how hot, cold, wet, or windy it might be!

Date:

Astronomy

Aug. 11, 2013 Rise Set
Actual Time 6:34 AM CDT 8:10 PM CDT
Civil Twilight 6:06 AM CDT 8:37 PM CDT
Nautical Twilight 5:34 AM CDT 9:10 PM CDT
Astronomical Twilight 4:59 AM CDT 9:44 PM CDT
Moon 11:09 AM CDT (8/11) 10:40 PM CDT (8/11)
Length of Visible Light 14h 30m
Length of Day
13h 36m
Waxing Crescent, 22% of the Moon is Illuminated
Aug 11
Waxing Crescent
Aug 14
First Quarter
Aug 20
Full
Aug 28
Last Quarter
Sep 5
New

Hourly Weather History & Observations

Time (CDT) Temp. Heat Index Dew Point Humidity Pressure Visibility Wind Dir Wind Speed Gust Speed Precip Events Conditions
12:53 AM 77.0 °F - 72.0 °F 84% 30.04 in 10.0 mi East 8.1 mph - N/A   Partly Cloudy
1:53 AM 77.0 °F - 73.0 °F 88% 30.03 in 10.0 mi East 6.9 mph - N/A   Mostly Cloudy
2:53 AM 77.0 °F - 73.0 °F 88% 30.03 in 10.0 mi East 5.8 mph - N/A   Mostly Cloudy
3:53 AM 75.9 °F - 73.0 °F 91% 30.03 in 10.0 mi East 5.8 mph - N/A   Mostly Cloudy
4:53 AM 75.9 °F - 73.0 °F 91% 30.03 in 10.0 mi East 6.9 mph - N/A   Mostly Cloudy
5:53 AM 75.0 °F - 72.0 °F 90% 30.04 in 10.0 mi ENE 6.9 mph - N/A   Clear
6:53 AM 75.0 °F - 72.0 °F 90% 30.04 in 10.0 mi East 5.8 mph - N/A   Clear
7:53 AM 75.9 °F - 73.0 °F 91% 30.06 in 10.0 mi East 4.6 mph - N/A   Overcast
8:53 AM 78.1 °F - 73.0 °F 84% 30.06 in 10.0 mi ESE 5.8 mph - N/A   Overcast
9:03 AM 78.8 °F - 73.4 °F 83% 30.07 in 10.0 mi East 4.6 mph - N/A   Overcast
9:53 AM 81.0 °F 86.2 °F 73.9 °F 79% 30.06 in 10.0 mi East 4.6 mph - N/A   Mostly Cloudy
10:04 AM 82.4 °F 88.2 °F 73.4 °F 74% 30.07 in 10.0 mi Variable 4.6 mph - N/A   Scattered Clouds
10:53 AM 84.0 °F 91.2 °F 73.9 °F 72% 30.06 in 10.0 mi NNE 3.5 mph - N/A   Mostly Cloudy
11:02 AM 84.2 °F 90.9 °F 73.4 °F 70% 30.08 in 10.0 mi NNE 3.5 mph - N/A   Mostly Cloudy
11:30 AM 84.2 °F 90.9 °F 73.4 °F 70% 30.08 in 10.0 mi NE 5.8 mph - N/A   Mostly Cloudy
11:39 AM 86.0 °F 93.4 °F 73.4 °F 66% 30.07 in 10.0 mi Calm Calm - N/A   Scattered Clouds
11:53 AM 86.0 °F 93.8 °F 73.9 °F 67% 30.06 in 10.0 mi North 4.6 mph - N/A   Mostly Cloudy
12:08 PM 84.2 °F 90.9 °F 73.4 °F 70% 30.07 in 10.0 mi NE 6.9 mph - N/A   Mostly Cloudy
12:33 PM 84.2 °F 90.9 °F 73.4 °F 70% 30.07 in 10.0 mi East 3.5 mph - N/A   Overcast
12:53 PM 86.0 °F 93.8 °F 73.9 °F 67% 30.05 in 10.0 mi NNE 5.8 mph - N/A   Mostly Cloudy
1:53 PM 87.1 °F 95.4 °F 73.9 °F 65% 30.04 in 10.0 mi NE 4.6 mph - N/A   Mostly Cloudy
2:53 PM 90.0 °F 100.2 °F 75.0 °F 61% 30.02 in 10.0 mi ENE 6.9 mph - N/A   Partly Cloudy
3:53 PM 91.0 °F 99.3 °F 73.0 °F 55% 29.99 in 10.0 mi Calm Calm - N/A   Clear
4:53 PM 91.0 °F 100.4 °F 73.9 °F 57% 30.00 in 10.0 mi ESE 3.5 mph - N/A   Mostly Cloudy
5:53 PM 90.0 °F 96.4 °F 71.1 °F 54% 29.99 in 10.0 mi Calm Calm - N/A   Clear
6:53 PM 89.1 °F 98.0 °F 73.9 °F 61% 29.98 in 10.0 mi East 4.6 mph - N/A   Clear
7:53 PM 87.1 °F 95.4 °F 73.9 °F 65% 29.98 in 10.0 mi ESE 4.6 mph - N/A   Partly Cloudy
8:53 PM 82.9 °F 89.4 °F 73.9 °F 74% 29.99 in 10.0 mi Variable 3.5 mph - N/A   Clear
9:53 PM 81.0 °F 85.8 °F 73.0 °F 77% 30.01 in 10.0 mi Calm Calm - N/A   Clear
10:53 PM 80.1 °F 84.2 °F 73.0 °F 79% 30.01 in 10.0 mi Calm Calm - N/A   Clear
11:53 PM 78.1 °F - 73.9 °F 87% 30.01 in 10.0 mi ENE 4.6 mph - N/A   Clear